TimeCST,TemperatureF,Dew PointF,Humidity,Sea Level PressureIn,VisibilityMPH,Wind Direction,Wind SpeedMPH,Gust SpeedMPH,PrecipitationIn,Events,Conditions,WindDirDegrees,DateUTC
12:45 AM,39.2,33.8,81,30.30,7.0,Calm,Calm,-,N/A,,Clear,0,2012-12-07 06:45:00
1:45 AM,37.4,32.0,81,30.30,6.0,Calm,Calm,-,N/A,,Clear,0,2012-12-07 07:45:00
2:45 AM,35.6,30.2,81,29.85,5.0,Calm,Calm,-,N/A,,Clear,0,2012-12-07 08:45:00
3:45 AM,33.8,32.0,93,30.28,5.0,Calm,Calm,-,N/A,,Partly Cloudy,0,2012-12-07 09:45:00
4:45 AM,32.0,30.2,93,30.28,4.0,Calm,Calm,-,N/A,,Scattered Clouds,0,2012-12-07 10:45:00
5:45 AM,33.8,30.2,87,29.95,3.0,Calm,Calm,-,N/A,,Scattered Clouds,0,2012-12-07 11:45:00
6:45 AM,32.0,28.4,87,30.29,2.0,East,3.5,-,N/A,,Scattered Clouds,80,2012-12-07 12:45:00
7:45 AM,32.0,30.2,93,30.31,2.0,Calm,Calm,-,N/A,,Scattered Clouds,0,2012-12-07 13:45:00
8:45 AM,37.4,33.8,87,30.00,3.0,East,3.5,-,N/A,,Haze,80,2012-12-07 14:45:00
9:45 AM,48.2,35.6,62,30.32,4.0,Calm,Calm,-,N/A,,Scattered Clouds,0,2012-12-07 15:45:00
10:45 AM,57.2,35.6,44,30.31,4.0,WNW,4.6,-,N/A,,Mostly Cloudy,290,2012-12-07 16:45:00
11:45 AM,62.6,26.6,26,30.03,7.0,NE,4.6,-,N/A,,Mostly Cloudy,50,2012-12-07 17:45:00
12:45 PM,64.4,23.0,21,30.28,7.0,NE,4.6,-,N/A,,Mostly Cloudy,50,2012-12-07 18:45:00
1:45 PM,66.2,21.2,18,30.21,7.0,North,-9999.0,-,N/A,,Mostly Cloudy,0,2012-12-07 19:45:00
2:45 PM,68.0,26.6,21,29.73,7.0,WSW,3.5,-,N/A,,Mostly Cloudy,240,2012-12-07 20:45:00
3:45 PM,62.6,33.8,34,30.19,7.0,SSE,20.7,-,N/A,,Mostly Cloudy,160,2012-12-07 21:45:00
4:45 PM,60.8,44.6,55,30.20,7.0,SE,11.5,-,N/A,,Overcast,140,2012-12-07 22:45:00
5:45 PM,57.2,37.4,48,29.89,7.0,SE,11.5,-,N/A,,Overcast,140,2012-12-07 23:45:00
6:45 PM,51.8,37.4,58,30.24,7.0,ESE,4.6,-,N/A,,Mostly Cloudy,110,2012-12-08 00:45:00
7:45 PM,48.2,37.4,66,30.27,7.0,SE,4.6,-,N/A,,Partly Cloudy,130,2012-12-08 01:45:00
8:45 PM,48.2,35.6,62,29.99,7.0,NNW,4.6,-,N/A,,Clear,340,2012-12-08 02:45:00
9:42 PM,44.6,35.6,71,30.30,7.0,Calm,Calm,-,N/A,,Clear,0,2012-12-08 03:42:00
10:45 PM,42.8,33.8,70,30.30,7.0,ENE,4.6,-,N/A,,Clear,60,2012-12-08 04:45:00
11:45 PM,39.2,33.8,81,29.88,5.0,Calm,Calm,-,N/A,,Scattered Clouds,0,2012-12-08 05:45:00